Avian Flight Center Webcam (1 minute updates)

Looking East from Avian at mid-field (Taxiway E) towards Runway 20-2 (Click for full size image). Image will update automatically every minute.

Bremerton Airport Live Webcam

KPWT 191455Z AUTO 23009KT 10SM SCT012 BKN023 OVC029 06/06 A2988 RMK AO1 P0011 60036 52017

Time-lapse movie of yesterday's webcam images

If you are unable to view the movie, download and install the DivX Codec here